Alejandro Ramirez

Chefscout - Independiente Medellin
24 Sep 2028
Sonntag
Verarbeitung

Persönlichkeit

Anpassungsfähigkeit (18) Ehrgeiz (9) Kontroverse (19) Loyalität (11) Druck (15) Professionalität (14) Fairness (3) Temperament (5)

Profil

Trainerstil Demokratisch
Lizenz Kontinentale B
Entschlossenheit 4
Menschenführung 9
Motivation 5
Disziplin 6
Arbeitszufriedenheit
100%
Ermüdung
0%
Rolle Chefscout
Gehalt 19.1K p/W
Vertrag 14.03.2029

Leistung

Verhalten Gut
Trainingseffektivität
39%
Spielerentwicklung
50%
Verletzungsprävention
25%
Taktische Umsetzung
25%

Letzte Ereignisse

Nahm an einer Scouting-Besprechung teil jetzt
Empfahl ein Transferziel jetzt
Empfahl ein Transferziel jetzt
Nahm an einer Scouting-Besprechung teil 7T her
Empfahl ein Transferziel 7T her
Empfahl ein Transferziel 7T her
Nahm an einer Scouting-Besprechung teil 7T her
Nahm an einer Scouting-Besprechung teil 7T her

Aktuell beobachtet

202
Spieler Verein Status Fähigkeit Vertrauen Beobachtet Zuletzt beobachtet Letzte Stimme
Máximo Munarriz San Telmo Aktiv 93 / 103 40% 1 01.06.2028 -
Christos Mouzakitis Hull City Aktiv 151 / 135 40% 1 01.06.2028 -
Christian Saydee Wigan Athletic Aktiv 99 / 113 40% 1 31.05.2028 -
Patson Daka Leicester City Aktiv 143 / 138 40% 1 31.05.2028 -
Nazareno Roselli Defensa y Justicia Aktiv 120 / 124 40% 6 28.12.2027 -
Lucas Høgsberg RC Strasbourg Aktiv 128 / 138 40% 1 28.12.2027 -
Freddy Espinal Real Santander Aktiv 104 / 102 44% 1 13.12.2027 -
Alan Cantero Juan Aurich Aktiv 113 / 119 40% 1 04.12.2027 -
Brandon Vázquez Austin FC Aktiv 113 / 120 40% 1 04.12.2027 -
Ramiro Ruiz Rodríguez Atlético Tucumán Aktiv 115 / 122 40% 2 30.11.2027 -
Bénie Traoré New York City Aktiv 125 / 133 40% 2 30.11.2027 -
Ivan Borges Defensores Aktiv 82 / 90 40% 4 10.11.2027 -
Nahuel Leivas Montevideo City Torque Aktiv 116 / 108 40% 3 09.11.2027 -
Matias Siltanen Malmo FF Aktiv 135 / 119 40% 4 08.11.2027 -
Adrian Skogmar Malmo FF Aktiv 108 / 127 40% 1 08.11.2027 -
Olaniyi Saheed Kwara United Aktiv 74 / 98 40% 2 06.11.2027 -
Hosea Michael Remo Stars Aktiv 81 / 95 40% 3 06.11.2027 -
Victor Hernandez Santa Fe Aktiv 125 / 127 40% 3 04.11.2027 -
Diego Vargas Universidad de Concepcion Aktiv 100 / 92 40% 2 03.11.2027 -
Melvin Vučenović Persson Atvidaberg Aktiv 72 / 88 40% 1 03.11.2027 -
Agustín Obregón River Plate Aktiv 102 / 115 40% 2 02.11.2027 -
Joel Ezra Enyimba Aktiv 89 / 93 40% 4 02.11.2027 -
Onyeuche Ujunwa Ikorodu City Aktiv 89 / 98 40% 1 01.11.2027 -
Colin Guske Orlando City Aktiv 104 / 97 40% 1 29.10.2027 -
Yury Oyarzo Racing Aktiv 100 / 104 40% 3 28.10.2027 -
Ignacio Fernández Boston River Aktiv 101 / 100 40% 3 27.10.2027 -
Matías Canedo Rampla Juniors Aktiv 97 / 95 40% 1 27.10.2027 -
Azizbek To'lqinbekov Bunyodkor Aktiv 100 / 99 40% 1 20.10.2027 -
Godwin Oham Warri Wolves Aktiv 99 / 99 40% 3 19.10.2027 -
Isaías Silva Miramar Misiones Aktiv 66 / 81 40% 1 19.10.2027 -
Tiago Gordillo San Miguel Aktiv 85 / 92 40% 3 18.10.2027 -
Issa Yusuf Shooting Stars Aktiv 73 / 89 40% 2 11.10.2027 -
Óscar Hinojosa Metropolitanos Aktiv 91 / 80 40% 3 10.10.2027 -
Aaron Branca Artigas Aktiv 79 / 88 40% 1 08.10.2027 -
David Damboama El-Kanemi Warriors Aktiv 105 / 90 40% 1 07.10.2027 -
Toheeb Adebayo Shooting Stars Aktiv 71 / 78 40% 1 03.10.2027 -
Luciano Posadas Central Córdoba SdE Aktiv 100 / 102 40% 2 30.09.2027 -
Daniel Idoko Ikorodu City Aktiv 113 / 91 40% 1 29.09.2027 -
Juan Camilo Córdoba Deportivo Pereira Aktiv 91 / 95 40% 1 28.09.2027 -
Celías Ingenthron Platense Aktiv 122 / 117 40% 1 22.09.2027 -
Francisco Machis Llaneros Aktiv 74 / 86 40% 2 19.09.2027 -
Chibueze Oputa Rangers International Aktiv 110 / 99 40% 1 18.09.2027 -
Mpho Khethang FC Diarra Aktiv 90 / 97 40% 1 17.09.2027 -
Alejandro Leiva Patronato Aktiv 102 / 98 40% 1 16.09.2027 -
Nicolás Blanco San Lorenzo Aktiv 107 / 106 40% 1 16.09.2027 -
Esteban de Lima Tacuarembo Aktiv 101 / 99 40% 1 12.09.2027 -
Riley Owen Stevenage Aktiv 95 / 114 40% 3 02.06.2027 -
Caleb Yirenkyi Coventry City Aktiv 127 / 134 40% 1 02.06.2027 -
Radek Vítek Middlesbrough Aktiv 144 / 138 40% 9 29.05.2027 -
Francesco D'Alterio Ternana Aktiv 116 / 113 40% 5 27.05.2027 -
Federico Losas Chacarita Juniors Aktiv 119 / 111 40% 2 24.05.2027 -
Mauro Silveira Junior Aktiv 138 / 127 40% 1 24.05.2027 -
Elia Caprile Cagliari Aktiv 144 / 143 40% 4 23.05.2027 -
Robin Roefs Sunderland Aktiv 166 / 139 40% 3 23.05.2027 -
William Rovida Pro Patria Aktiv 116 / 99 40% 2 21.05.2027 -
Sławomir Abramowicz Jagiellonia Aktiv 135 / 121 40% 6 18.05.2027 -
Anthony Patterson Wrexham Aktiv 112 / 134 40% 3 18.05.2027 -
Fabrizio Correa Juventud Aktiv 122 / 119 40% 2 17.05.2027 -
Luciano Jachfe Nueva Chicago Aktiv 112 / 123 40% 2 17.05.2027 -
Nathan Bishop AFC Wimbledon Aktiv 116 / 99 40% 3 15.05.2027 -
Miguel Acosta Argentinos Juniors Aktiv 109 / 116 40% 1 13.05.2027 -
Jenson Jones Walsall Aktiv 101 / 103 40% 1 07.05.2027 -
Sascha Britschgi AC Milan Aktiv 125 / 128 40% 1 05.05.2027 -
Ivor Pandur Hull City Aktiv 140 / 133 40% 4 04.05.2027 -
Alejandro Rodríguez Melgar Aktiv 118 / 129 40% 1 02.05.2027 -
James Trafford Leeds United Aktiv 151 / 142 40% 5 26.04.2027 -
Tarek Bousseder ES Setif Aktiv 90 / 105 40% 1 23.04.2027 -
Diego Romero Universitario Aktiv 114 / 129 40% 1 22.04.2027 -
Charlie Gray Fleetwood Town Aktiv 106 / 95 40% 1 21.04.2027 -
Hirving Reyes Veracruz Aktiv 93 / 91 40% 1 20.04.2027 -
Andrii Kozhukhar Veres Aktiv 98 / 112 40% 1 16.04.2027 -
Cesare Galeotti Trapani Aktiv 89 / 99 40% 2 14.04.2027 -
Jan Bačkovský Dukla Prague Aktiv 95 / 104 40% 2 09.04.2027 -
Rivaldo Mkhize Black Aces Aktiv 86 / 93 40% 2 09.04.2027 -
Deniz Ertaş Konyaspor Aktiv 103 / 129 40% 1 09.04.2027 -
Chari Giwa US Bougouni Aktiv 77 / 72 40% 1 09.04.2027 -
Myles Roberts Cambridge United Aktiv 90 / 109 40% 1 06.04.2027 -
Will Dennis Milton Keynes Dons Aktiv 127 / 99 40% 1 06.04.2027 -
Leandro Martins Benfica Aktiv 86 / 92 40% 2 03.04.2027 -
Samuele Diodato Lumezzane Aktiv 113 / 97 40% 2 01.04.2027 -
Heorhii Yermakov Metalist Aktiv 136 / 111 40% 1 01.04.2027 -
Matteo Rizzo Cosenza Aktiv 92 / 109 40% 1 28.03.2027 -
Kazunari Kita Real Sociedad Aktiv 108 / 111 40% 2 27.03.2027 -
Bilal Bayazıt Kayserispor Aktiv 112 / 127 40% 1 27.03.2027 -
Body Samir ENPPI Aktiv 91 / 102 40% 1 24.03.2027 -
Sergio Barlocco Trento Aktiv 98 / 106 40% 1 21.03.2027 -
Alexandr Koryakin Krasnodar Aktiv 106 / 124 40% 2 20.03.2027 -
James Dornelly Peterborough United Aktiv 94 / 107 40% 1 20.03.2027 -
Gianluca Saro Foggia Aktiv 94 / 116 40% 1 17.03.2027 -
Gonçalo Oliveira Benfica Aktiv 125 / 107 40% 1 17.03.2027 -
David Ozoh Derby County Aktiv 101 / 135 40% 1 17.03.2027 -
Jan Bürger Northampton Town Aktiv 126 / 118 40% 1 16.03.2027 -
Tiago Freitas Benfica Aktiv 99 / 110 40% 1 10.03.2027 -
Joaquin Seys Club Brugge Aktiv 121 / 132 40% 1 08.03.2027 -
Andreas Jungdal Westerlo Aktiv 125 / 130 40% 2 07.03.2027 -
Edwin Asamoah Berekum Chelsea Aktiv 65 / 80 40% 1 04.03.2027 -
Lukas Jensen Millwall Aktiv 98 / 127 40% 3 01.03.2027 -
Fran Vieites Walsall Aktiv 99 / 123 40% 1 28.02.2027 -
Oufa Shobeir MC Alger Aktiv 137 / 132 40% 1 25.02.2027 -
Samu Maccabi Netanya Aktiv 132 / 117 40% 1 24.02.2027 -
Martin Velichkov Lokomotiv Sofia Aktiv 101 / 96 40% 1 19.02.2027 -
Murphy Cooper Plymouth Argyle Aktiv 98 / 118 40% 5 16.02.2027 -
Arthur Beroe Aktiv 119 / 118 40% 3 11.02.2027 -
Ludovico Del Sorbo Sorrento Aktiv 97 / 106 40% 1 10.02.2027 -
Filip Marschall Stevenage Aktiv 96 / 116 40% 1 08.02.2027 -
Tomás Ahumada Audax Italiano Aktiv 110 / 116 40% 1 07.02.2027 -
Josh Keeley Luton Town Aktiv 114 / 124 40% 1 06.02.2027 -
Marcus Bundgaard SonderjyskE Aktiv 97 / 113 40% 1 05.02.2027 -
Strahinja Manojlović Radnicki Nis Aktiv 98 / 106 40% 2 02.02.2027 -
Lander Astiazarán Real Sociedad Aktiv 124 / 104 40% 1 02.02.2027 -
Mathys Tel Tottenham Aktiv 164 / 142 40% 1 02.02.2027 -
Doğan Alemdar Basaksehir Aktiv 99 / 109 40% 1 20.01.2027 -
Luis Ingolotti Atlético Tucumán Aktiv 129 / 128 40% 1 14.01.2027 -
Carlos Jimenez Veracruz Aktiv 96 / 111 40% 1 29.12.2026 -
Rodrigo López Pumas UNAM Aktiv 94 / 125 40% 1 29.12.2026 -
Emmanuel Boateng Hapoel Tel Aviv Aktiv 113 / 126 40% 1 21.12.2026 -
Carlos Álvarez Club America Aktiv 156 / 143 40% 2 15.12.2026 -
Israel Reyes Toulouse FC Aktiv 137 / 137 68% 1 01.12.2026 Befürworten
Stanislav Agkatsev Brentford Aktiv 132 / 133 66% 1 01.12.2026 Befürworten
Duk Atlas Aktiv 109 / 112 40% 1 01.12.2026 -
Tomás Molina Argentinos Juniors Aktiv 123 / 132 40% 1 01.12.2026 -
Morgan Guilavogui Real Salt Lake Aktiv 107 / 116 40% 1 28.11.2026 -
Alan Lescano Argentinos Juniors Aktiv 119 / 124 40% 2 27.11.2026 -
Gustavo Del Prete San Lorenzo Aktiv 123 / 116 40% 1 27.11.2026 -
Marcelo Allende Mamelodi Sundowns Aktiv 112 / 119 40% 1 27.11.2026 -
Carlos Forbs Club Brugge Aktiv 110 / 143 40% 4 25.11.2026 -
Sota Kitano Red Bull Salzburg Aktiv 109 / 125 40% 1 25.11.2026 -
Kevin Castañeda Guadalajara Aktiv 131 / 126 40% 1 25.11.2026 -
Yousef Salech Cardiff City Aktiv 142 / 116 40% 2 23.11.2026 -
Leo Ceara Kashima Antlers Aktiv 147 / 140 40% 5 22.11.2026 -
Alexis Cuello San Lorenzo Aktiv 118 / 123 40% 3 22.11.2026 -
Tomás Conechny Racing Club Aktiv 125 / 131 40% 1 20.11.2026 -
Antony Alonso Deportivo Riestra Aktiv 122 / 127 40% 2 19.11.2026 -
Marcelo Torres Gimnasia La Plata Aktiv 118 / 116 40% 2 18.11.2026 -
Erik Lira Cruz Azul Aktiv 150 / 134 40% 1 18.11.2026 -
Rick Talleres Aktiv 117 / 120 40% 1 18.11.2026 -
Aurélien Scheidler Charleroi Aktiv 107 / 125 40% 1 18.11.2026 -
Ignacio Russo Tigre Aktiv 131 / 129 40% 1 17.11.2026 Mehr Infos nötig
Tiago Palacios Estudiantes Aktiv 138 / 124 40% 3 16.11.2026 Beobachten
Alexander Díaz Deportivo Riestra Aktiv 122 / 112 40% 1 16.11.2026 -
Brian Rodríguez Club America Aktiv 146 / 120 40% 1 14.11.2026 -
Jhonatan Candia Barracas Central Aktiv 120 / 128 40% 2 13.11.2026 -
Juninho Pumas UNAM Aktiv 142 / 121 40% 6 10.11.2026 -
Alejandro Gómez Tijuana Aktiv 128 / 111 40% 1 09.11.2026 -
Enzo Copetti Rosario Central Aktiv 118 / 119 40% 2 08.11.2026 -
Nicolò Tresoldi Club Brugge Aktiv 130 / 144 40% 1 08.11.2026 -
César Ibáñez Huracán Aktiv 137 / 124 40% 2 06.11.2026 -
Roberto de la Rosa Monterrey Aktiv 100 / 128 40% 1 06.11.2026 -
Rodrigo Bogarín Barracas Central Aktiv 108 / 121 40% 1 04.11.2026 -
Edwuin Cetré Estudiantes Aktiv 119 / 120 40% 1 02.11.2026 -
Mariano Bracamonte Deportivo Riestra Aktiv 118 / 116 40% 1 01.11.2026 -
Rodrigo González Mitre Aktiv 128 / 111 40% 1 30.10.2026 -
Petar Musa FC Dallas Aktiv 160 / 140 40% 1 23.10.2026 -
Hugo Cuypers Monterrey Aktiv 139 / 133 40% 4 22.10.2026 -
Ignacio Ramírez Newell's Old Boys Aktiv 135 / 128 40% 2 20.10.2026 -
Diego Rossi Monterrey Aktiv 147 / 129 40% 3 16.10.2026 -
Alejo Cruz Juventud Aktiv 119 / 116 40% 1 16.10.2026 -
Juan Cruz de los Santos Nacional Aktiv 136 / 121 40% 1 15.10.2026 -
David Barbona Defensa y Justicia Aktiv 111 / 128 40% 2 11.10.2026 -
Lautaro Ríos Banfield Aktiv 128 / 116 40% 1 11.10.2026 -
Germán Berterame Inter Miami CF Aktiv 120 / 128 40% 1 10.10.2026 -
Rafael Santos Borré River Plate Aktiv 143 / 135 40% 1 10.10.2026 -
Santiago Rodríguez Gimnasia y Esgrima Aktiv 106 / 120 40% 1 09.10.2026 -
Ismael Díaz Leon Aktiv 105 / 126 40% 1 06.10.2026 -
Mauro Méndez Tigre Aktiv 114 / 125 40% 1 06.10.2026 -
Gastón Benedetti Estudiantes Aktiv 117 / 119 40% 1 05.10.2026 -
Cheikh Sabaly Vancouver Whitecaps Aktiv 120 / 117 40% 1 26.09.2026 -
Gonzalo Carneiro Sparta Prague Aktiv 110 / 122 40% 3 22.09.2026 -
Martín Ojeda Orlando City Aktiv 123 / 126 40% 2 19.09.2026 -
Rodrigo Aguirre Aktiv 126 / 121 40% 3 15.09.2026 -
Enes Ünal Getafe Aktiv 117 / 139 40% 1 13.09.2026 -
Timo Werner San Jose Earthquakes Aktiv 137 / 123 40% 2 12.09.2026 -
Brian White Vancouver Whitecaps Aktiv 101 / 131 40% 3 10.09.2026 -
Santiago Simón Toluca Aktiv 142 / 122 40% 1 09.09.2026 -
Santiago Toloza O'Higgins Aktiv 137 / 127 40% 1 09.09.2026 -
Leandro Suhr Boston River Aktiv 126 / 112 40% 1 09.09.2026 -
Luciano Cosentino Wanderers Aktiv 116 / 120 40% 1 08.09.2026 -
Jonatan Torres Cerro Porteno Aktiv 133 / 117 40% 1 08.09.2026 -
João Klauss LA Galaxy Aktiv 139 / 121 40% 1 04.09.2026 -
Justo Giani Umraniyespor Aktiv 101 / 127 40% 1 29.08.2026 -
Kévin Denkey FC Cincinnati Aktiv 132 / 117 40% 1 28.08.2026 -
Dániel Gazdag New England Revolution Aktiv 110 / 138 40% 1 24.08.2026 -
Guilherme Houston Dynamo Aktiv 130 / 122 40% 1 23.08.2026 -
Kevin Álvarez Club America Aktiv 154 / 125 40% 2 20.08.2026 -
Gerardo Arteaga Monterrey Aktiv 149 / 133 40% 1 20.08.2026 -
Josh Sargent Toronto FC Aktiv 109 / 121 40% 1 18.08.2026 -
Myrto Uzuni Austin FC Aktiv 119 / 122 40% 1 18.08.2026 -
Jorge Sánchez Atlas Aktiv 132 / 131 40% 1 15.08.2026 -
Jhohan Romaña Leon Aktiv 142 / 131 40% 1 14.08.2026 -
Luis Romo Guadalajara Aktiv 137 / 131 40% 1 13.08.2026 -
Jhojan Valencia Universidad Catolica Aktiv 114 / 120 40% 1 12.08.2026 -
Willer Ditta Cruz Azul Aktiv 147 / 129 40% 1 12.08.2026 -
Rubén Duarte Pumas UNAM Aktiv 110 / 133 40% 1 11.08.2026 -
Renzo Garcés Alianza Lima Aktiv 110 / 117 40% 1 11.08.2026 -
Jesus Ferreira Seattle Sounders Aktiv 112 / 130 40% 1 09.08.2026 -
Pedro Pedraza Pachuca Aktiv 100 / 109 40% 1 08.08.2026 -
Nathan Silva Pumas UNAM Aktiv 110 / 138 40% 1 07.08.2026 -
Enzo Giménez Queretaro Aktiv 134 / 117 40% 1 05.08.2026 -
Víctor Felipe Méndez Colo-Colo Aktiv 117 / 112 40% 1 05.08.2026 -
César Araújo Tigres Aktiv 116 / 129 40% 1 03.08.2026 -
Lucas Abascia Queretaro Aktiv 139 / 122 40% 1 03.08.2026 -
Jorge Morel Cerro Porteno Aktiv 127 / 113 40% 1 02.08.2026 -